Time,TemperatureF,DewpointF,PressureIn,WindDirection,WindDirectionDegrees,WindSpeedMPH,WindSpeedGustMPH,Humidity,HourlyPrecipIn,Conditions,Clouds,dailyrainin,SoftwareType,DateUTC
2013-08-26 00:11:00,74.9,73.0,30.10,ENE,74,4.0,5.0,94,0.00,,,0.00,weatherlink.com 1.10,2013-08-26 05:11:00,
2013-08-26 00:26:00,74.9,73.0,30.10,ESE,104,2.0,4.0,94,0.00,,,0.00,weatherlink.com 1.10,2013-08-26 05:26:00,
2013-08-26 00:41:00,74.6,73.0,30.10,East,94,4.0,4.0,94,0.00,,,0.00,weatherlink.com 1.10,2013-08-26 05:41:00,
2013-08-26 00:56:00,74.5,73.0,30.09,ENE,62,1.0,3.0,94,0.00,,,0.00,weatherlink.com 1.10,2013-08-26 05:56:00,
2013-08-26 01:11:00,74.2,72.0,30.09,East,79,1.0,5.0,94,0.00,,,0.00,weatherlink.com 1.10,2013-08-26 06:11:00,
2013-08-26 01:26:00,74.1,72.0,30.08,East,92,2.0,4.0,94,0.00,,,0.00,weatherlink.com 1.10,2013-08-26 06:26:00,
2013-08-26 01:41:00,74.0,72.0,30.08,ESE,104,2.0,5.0,94,0.00,,,0.00,weatherlink.com 1.10,2013-08-26 06:41:00,
2013-08-26 01:56:00,73.9,72.0,30.08,ENE,71,7.0,7.0,94,0.00,,,0.00,weatherlink.com 1.10,2013-08-26 06:56:00,
2013-08-26 02:11:00,73.8,72.0,30.07,East,90,2.0,6.0,94,0.00,,,0.00,weatherlink.com 1.10,2013-08-26 07:11:00,
2013-08-26 02:26:00,73.7,72.0,30.07,NE,38,1.0,4.0,94,0.00,,,0.00,weatherlink.com 1.10,2013-08-26 07:26:00,
2013-08-26 02:41:00,73.6,72.0,30.07,NE,47,2.0,5.0,95,0.00,,,0.00,weatherlink.com 1.10,2013-08-26 07:41:00,
2013-08-26 02:56:00,73.5,72.0,30.07,ENE,77,2.0,6.0,95,0.00,,,0.00,weatherlink.com 1.10,2013-08-26 07:56:00,
2013-08-26 03:11:00,73.4,72.0,30.06,East,80,2.0,6.0,95,0.00,,,0.00,weatherlink.com 1.10,2013-08-26 08:11:00,
2013-08-26 03:26:00,73.3,72.0,30.05,ENE,65,4.0,5.0,95,0.00,,,0.00,weatherlink.com 1.10,2013-08-26 08:26:00,
2013-08-26 03:41:00,73.2,72.0,30.05,East,92,1.0,5.0,95,0.00,,,0.00,weatherlink.com 1.10,2013-08-26 08:41:00,
2013-08-26 03:56:00,73.3,72.0,30.06,ENE,69,2.0,4.0,95,0.00,,,0.00,weatherlink.com 1.10,2013-08-26 08:56:00,
2013-08-26 04:11:00,73.6,72.0,30.06,ENE,64,5.0,5.0,95,0.00,,,0.00,weatherlink.com 1.10,2013-08-26 09:11:00,
2013-08-26 04:26:00,73.7,72.0,30.06,ENE,67,2.0,6.0,95,0.00,,,0.00,weatherlink.com 1.10,2013-08-26 09:26:00,
2013-08-26 04:41:00,73.8,72.0,30.06,East,81,3.0,5.0,95,0.00,,,0.00,weatherlink.com 1.10,2013-08-26 09:41:00,
2013-08-26 04:56:00,73.8,72.0,30.07,ENE,78,2.0,8.0,95,0.00,,,0.00,weatherlink.com 1.10,2013-08-26 09:56:00,
2013-08-26 05:11:00,73.7,72.0,30.07,ENE,72,3.0,5.0,95,0.00,,,0.00,weatherlink.com 1.10,2013-08-26 10:11:00,
2013-08-26 05:26:00,73.7,72.0,30.07,East,82,1.0,7.0,95,0.00,,,0.00,weatherlink.com 1.10,2013-08-26 10:26:00,
2013-08-26 05:41:00,73.8,72.0,30.08,ENE,77,2.0,6.0,95,0.00,,,0.00,weatherlink.com 1.10,2013-08-26 10:41:00,
2013-08-26 05:57:00,73.9,72.0,30.08,ESE,112,3.0,6.0,95,0.00,,,0.00,weatherlink.com 1.10,2013-08-26 10:57:00,
2013-08-26 06:11:00,74.0,73.0,30.08,ESE,105,3.0,6.0,95,0.00,,,0.00,weatherlink.com 1.10,2013-08-26 11:11:00,
2013-08-26 06:26:00,74.0,72.0,30.08,ENE,75,5.0,7.0,94,0.00,,,0.00,weatherlink.com 1.10,2013-08-26 11:26:00,
2013-08-26 06:41:00,74.1,72.0,30.08,East,91,2.0,8.0,94,0.00,,,0.00,weatherlink.com 1.10,2013-08-26 11:41:00,
2013-08-26 06:56:00,74.2,72.0,30.08,East,90,4.0,10.0,94,0.00,,,0.00,weatherlink.com 1.10,2013-08-26 11:56:00,
2013-08-26 07:12:00,74.4,73.0,30.09,East,79,3.0,8.0,94,0.00,,,0.00,weatherlink.com 1.10,2013-08-26 12:12:00,
2013-08-26 07:26:00,74.5,73.0,30.09,ENE,77,3.0,8.0,94,0.00,,,0.00,weatherlink.com 1.10,2013-08-26 12:26:00,
2013-08-26 07:41:00,74.8,73.0,30.10,ENE,67,6.0,10.0,94,0.00,,,0.00,weatherlink.com 1.10,2013-08-26 12:41:00,
2013-08-26 07:56:00,75.0,73.0,30.11,ENE,71,9.0,10.0,94,0.00,,,0.00,weatherlink.com 1.10,2013-08-26 12:56:00,
2013-08-26 08:11:00,75.4,74.0,30.11,East,88,1.0,9.0,94,0.00,,,0.00,weatherlink.com 1.10,2013-08-26 13:11:00,
2013-08-26 08:26:00,76.3,74.0,30.11,ENE,77,3.0,9.0,93,0.00,,,0.00,weatherlink.com 1.10,2013-08-26 13:26:00,
2013-08-26 08:41:00,76.8,74.0,30.11,East,92,7.0,11.0,91,0.00,,,0.00,weatherlink.com 1.10,2013-08-26 13:41:00,
2013-08-26 08:56:00,77.0,74.0,30.12,ENE,78,3.0,9.0,90,0.00,,,0.00,weatherlink.com 1.10,2013-08-26 13:56:00,
2013-08-26 09:11:00,77.2,74.0,30.12,East,96,1.0,10.0,90,0.00,,,0.00,weatherlink.com 1.10,2013-08-26 14:11:00,
2013-08-26 09:27:00,77.3,74.0,30.12,ENE,76,5.0,8.0,89,0.00,,,0.00,weatherlink.com 1.10,2013-08-26 14:27:00,
2013-08-26 09:42:00,77.3,74.0,30.13,ESE,111,2.0,12.0,90,0.00,,,0.00,weatherlink.com 1.10,2013-08-26 14:42:00,
2013-08-26 09:57:00,78.0,75.0,30.14,ESE,112,2.0,7.0,90,0.00,,,0.00,weatherlink.com 1.10,2013-08-26 14:57:00,
2013-08-26 10:12:00,78.7,75.0,30.14,East,99,6.0,9.0,87,0.00,,,0.00,weatherlink.com 1.10,2013-08-26 15:12:00,
2013-08-26 10:27:00,79.4,75.0,30.14,East,89,6.0,6.0,87,0.00,,,0.00,weatherlink.com 1.10,2013-08-26 15:27:00,
2013-08-26 10:42:00,78.9,75.0,30.14,East,101,4.0,13.0,87,0.00,,,0.00,weatherlink.com 1.10,2013-08-26 15:42:00,
2013-08-26 10:57:00,78.1,75.0,30.14,ESE,115,2.0,7.0,90,0.00,,,0.00,weatherlink.com 1.10,2013-08-26 15:57:00,
2013-08-26 11:12:00,79.0,75.0,30.14,East,92,6.0,8.0,88,0.00,,,0.00,weatherlink.com 1.10,2013-08-26 16:12:00,
2013-08-26 11:27:00,80.6,75.0,30.14,SE,134,3.0,9.0,84,0.00,,,0.00,weatherlink.com 1.10,2013-08-26 16:27:00,
2013-08-26 11:42:00,81.4,75.0,30.13,SE,124,3.0,10.0,82,0.00,,,0.00,weatherlink.com 1.10,2013-08-26 16:42:00,
2013-08-26 11:57:00,82.3,76.0,30.13,East,95,7.0,7.0,80,0.00,,,0.00,weatherlink.com 1.10,2013-08-26 16:57:00,
2013-08-26 12:12:00,81.9,76.0,30.13,NE,39,5.0,6.0,81,0.00,,,0.00,weatherlink.com 1.10,2013-08-26 17:12:00,
2013-08-26 12:27:00,82.4,76.0,30.13,ESE,116,2.0,9.0,80,0.00,,,0.00,weatherlink.com 1.10,2013-08-26 17:27:00,
2013-08-26 12:42:00,81.7,76.0,30.13,ESE,106,4.0,8.0,82,0.00,,,0.00,weatherlink.com 1.10,2013-08-26 17:42:00,
2013-08-26 12:57:00,81.0,76.0,30.13,ESE,116,7.0,19.0,84,0.04,,,0.04,weatherlink.com 1.10,2013-08-26 17:57:00,
2013-08-26 13:12:00,76.9,75.0,30.13,ESE,123,2.0,10.0,92,0.30,,,0.30,weatherlink.com 1.10,2013-08-26 18:12:00,
2013-08-26 13:27:00,77.0,75.0,30.13,South,169,2.0,5.0,93,0.31,,,0.31,weatherlink.com 1.10,2013-08-26 18:27:00,
2013-08-26 13:42:00,75.1,73.0,30.14,South,179,4.0,18.0,92,0.46,,,0.46,weatherlink.com 1.10,2013-08-26 18:42:00,
2013-08-26 13:57:00,74.9,73.0,30.14,SSE,149,6.0,9.0,94,0.53,,,0.57,weatherlink.com 1.10,2013-08-26 18:57:00,
2013-08-26 14:12:00,74.5,72.0,30.14,South,179,3.0,10.0,93,0.30,,,0.61,weatherlink.com 1.10,2013-08-26 19:12:00,
2013-08-26 14:27:00,73.9,72.0,30.14,SSW,193,4.0,7.0,94,0.37,,,0.68,weatherlink.com 1.10,2013-08-26 19:27:00,
2013-08-26 14:42:00,74.0,72.0,30.14,SE,139,1.0,4.0,94,0.24,,,0.71,weatherlink.com 1.10,2013-08-26 19:42:00,
2013-08-26 14:57:00,74.1,72.0,30.13,SE,146,1.0,5.0,94,0.17,,,0.74,weatherlink.com 1.10,2013-08-26 19:57:00,
2013-08-26 15:12:00,74.4,73.0,30.12,SE,146,1.0,4.0,94,0.14,,,0.75,weatherlink.com 1.10,2013-08-26 20:12:00,
2013-08-26 15:27:00,74.8,73.0,30.12,South,188,1.0,4.0,94,0.07,,,0.75,weatherlink.com 1.10,2013-08-26 20:27:00,
2013-08-26 15:42:00,75.2,73.0,30.11,SSE,153,1.0,4.0,93,0.04,,,0.75,weatherlink.com 1.10,2013-08-26 20:42:00,
2013-08-26 15:57:00,75.7,74.0,30.11,South,175,3.0,4.0,93,0.01,,,0.75,weatherlink.com 1.10,2013-08-26 20:57:00,
2013-08-26 16:12:00,76.2,74.0,30.11,SSE,159,0.0,1.0,93,0.00,,,0.75,weatherlink.com 1.10,2013-08-26 21:12:00,
2013-08-26 16:27:00,76.7,74.0,30.11,SSE,157,0.0,2.0,92,0.00,,,0.75,weatherlink.com 1.10,2013-08-26 21:27:00,
2013-08-26 16:42:00,77.3,74.0,30.12,SSE,160,2.0,3.0,90,0.00,,,0.75,weatherlink.com 1.10,2013-08-26 21:42:00,
2013-08-26 16:57:00,77.7,75.0,30.11,WNW,290,0.0,2.0,90,0.00,,,0.75,weatherlink.com 1.10,2013-08-26 21:57:00,
2013-08-26 17:12:00,77.7,75.0,30.11,SW,228,1.0,2.0,90,0.00,,,0.75,weatherlink.com 1.10,2013-08-26 22:12:00,
2013-08-26 17:27:00,78.5,75.0,30.11,WNW,297,1.0,2.0,89,0.00,,,0.75,weatherlink.com 1.10,2013-08-26 22:27:00,
2013-08-26 17:42:00,78.4,75.0,30.11,SSW,195,0.0,3.0,88,0.00,,,0.75,weatherlink.com 1.10,2013-08-26 22:42:00,
2013-08-26 17:57:00,78.6,75.0,30.11,West,264,0.0,2.0,88,0.00,,,0.75,weatherlink.com 1.10,2013-08-26 22:57:00,
2013-08-26 18:12:00,77.4,74.0,30.10,WNW,293,0.0,4.0,90,0.00,,,0.75,weatherlink.com 1.10,2013-08-26 23:12:00,
2013-08-26 18:27:00,77.0,74.0,30.09,NW,304,0.0,4.0,90,0.00,,,0.75,weatherlink.com 1.10,2013-08-26 23:27:00,
2013-08-26 18:42:00,76.5,74.0,30.09,WNW,300,1.0,3.0,90,0.00,,,0.75,weatherlink.com 1.10,2013-08-26 23:42:00,
2013-08-26 18:57:00,76.4,73.0,30.09,West,278,0.0,3.0,90,0.00,,,0.75,weatherlink.com 1.10,2013-08-26 23:57:00,
2013-08-26 19:12:00,76.4,73.0,30.09,West,278,0.0,0.0,90,0.00,,,0.75,weatherlink.com 1.10,2013-08-27 00:12:00,
2013-08-26 19:27:00,76.1,73.0,30.09,NNE,30,0.0,1.0,90,0.00,,,0.75,weatherlink.com 1.10,2013-08-27 00:27:00,
2013-08-26 19:42:00,75.7,73.0,30.09,NE,53,0.0,2.0,91,0.00,,,0.75,weatherlink.com 1.10,2013-08-27 00:42:00,
2013-08-26 19:57:00,75.0,73.0,30.09,NE,53,0.0,0.0,92,0.00,,,0.75,weatherlink.com 1.10,2013-08-27 00:57:00,
2013-08-26 20:12:00,74.7,72.0,30.09,NE,52,0.0,1.0,92,0.00,,,0.75,weatherlink.com 1.10,2013-08-27 01:12:00,
2013-08-26 20:27:00,74.2,72.0,30.09,NE,52,0.0,0.0,93,0.00,,,0.75,weatherlink.com 1.10,2013-08-27 01:27:00,
2013-08-26 20:42:00,73.8,72.0,30.09,NE,53,0.0,0.0,93,0.00,,,0.75,weatherlink.com 1.10,2013-08-27 01:42:00,
2013-08-26 20:57:00,73.6,72.0,30.09,NE,54,0.0,1.0,94,0.00,,,0.75,weatherlink.com 1.10,2013-08-27 01:57:00,
2013-08-26 21:12:00,73.7,72.0,30.08,NE,54,1.0,1.0,94,0.00,,,0.75,weatherlink.com 1.10,2013-08-27 02:12:00,
2013-08-26 21:27:00,73.9,72.0,30.09,ENE,78,0.0,2.0,94,0.00,,,0.75,weatherlink.com 1.10,2013-08-27 02:27:00,
2013-08-26 21:42:00,74.1,72.0,30.08,East,94,2.0,2.0,94,0.00,,,0.75,weatherlink.com 1.10,2013-08-27 02:42:00,
2013-08-26 21:57:00,73.9,72.0,30.08,East,86,3.0,3.0,94,0.00,,,0.75,weatherlink.com 1.10,2013-08-27 02:57:00,
2013-08-26 22:12:00,73.7,72.0,30.08,East,100,4.0,6.0,94,0.00,,,0.75,weatherlink.com 1.10,2013-08-27 03:12:00,
2013-08-26 22:27:00,73.7,72.0,30.08,East,89,0.0,2.0,94,0.00,,,0.75,weatherlink.com 1.10,2013-08-27 03:27:00,
2013-08-26 22:42:00,73.3,72.0,30.08,East,89,0.0,0.0,94,0.00,,,0.75,weatherlink.com 1.10,2013-08-27 03:42:00,
2013-08-26 22:57:00,73.3,72.0,30.09,East,89,0.0,1.0,95,0.00,,,0.75,weatherlink.com 1.10,2013-08-27 03:57:00,
2013-08-26 23:12:00,73.3,72.0,30.09,East,89,0.0,1.0,95,0.00,,,0.75,weatherlink.com 1.10,2013-08-27 04:12:00,
2013-08-26 23:27:00,73.2,72.0,30.09,ENE,62,0.0,1.0,95,0.00,,,0.75,weatherlink.com 1.10,2013-08-27 04:27:00,
2013-08-26 23:42:00,73.1,72.0,30.08,East,84,0.0,2.0,95,0.00,,,0.75,weatherlink.com 1.10,2013-08-27 04:42:00,
2013-08-26 23:57:00,73.2,72.0,30.08,East,84,0.0,1.0,95,0.00,,,0.00,weatherlink.com 1.10,2013-08-27 04:57:00,